Location: Caltech
(34.1382°N, 118.1253°W)
Time: 19:43:47
(UTC-07:00)

Cosmos 1626 - Visible Passes

Search period start: 22 May 2015 00:00
Search period end: 01 June 2015 00:00
Orbit: 506 x 511 km, 82.5° (Epoch: 22 May)

Date Brightness Start Highest point End Pass type
(mag) Time Alt. Az. Time Alt. Az. Time Alt. Az.
22 May 2.1 04:09:16 29° S 04:11:05 81° E 04:14:53 10° N visible
23 May 2.6 03:52:30 35° SSE 03:53:50 59° E 03:57:35 10° NNE visible
24 May 3.2 03:35:41 35° SE 03:36:36 42° E 03:40:13 10° NNE visible
25 May 3.6 03:18:50 30° ESE 03:19:21 31° E 03:22:45 10° NNE visible
25 May 4.3 04:53:43 11° W 04:55:06 12° WNW 04:56:36 10° NW visible
26 May 4.1 03:01:57 23° E 03:02:06 24° E 03:05:12 10° NE visible
26 May 4.0 04:36:49 15° W 04:37:42 16° WNW 04:40:03 10° NW visible
27 May 4.5 02:45:02 18° E 02:45:02 18° E 02:47:32 10° NE visible
27 May 3.6 04:19:54 21° W 04:20:20 21° WNW 04:23:13 10° NNW visible
28 May 4.9 02:28:05 13° E 02:28:05 13° E 02:29:37 10° ENE visible
28 May 3.3 04:02:57 27° WNW 04:02:58 27° WNW 04:06:13 10° NNW visible
29 May 3.0 03:45:58 35° WNW 03:45:58 35° WNW 03:49:08 10° NNW visible
30 May 2.9 03:28:58 43° NW 03:28:58 43° NW 03:31:56 10° N visible
31 May 3.0 03:11:56 45° NNW 03:11:56 45° NNW 03:14:42 10° N visible
